Jackson, WY

5:24 PM MDT on April 28, 2017 (GMT -0600)
Jackson Hole

Weather History for KJAC - October, 2011

Change the Weather History Date:

Thursday, October 27, 2011

  Actual Average Record
Temperature  
Mean Temperature 30 °F -  
Max Temperature 44 °F 50 °F 65 °F (1977)
Min Temperature 15 °F 18 °F 1 °F (1970)
Degree Days  
Heating Degree Days 36    
Moisture  
Dew Point 11 °F    
Average Humidity 54    
Maximum Humidity 73    
Minimum Humidity 25    
Precipitation  
Precipitation 0.00 in - - ()
Sea Level Pressure  
Sea Level Pressure 30.18 in    
Wind  
Wind Speed 4 mph (NNW)    
Max Wind Speed 13 mph    
Max Gust Speed 16 mph    
Visibility 10 miles    
Events      
Averages and records for this station are not official NWS values.
T = Trace of Precipitation, MM = Missing Value Source: NWS Daily Summary

Daily Weather History Graph

Daily Weather History Graph

Search for Another Location

Airport or City:

Trip Planner

Search our weather history database for the weather conditions in past years. The results will help you decide how hot, cold, wet, or windy it might be!

Date:

Astronomy

Oct. 27, 2011 Rise Set
Actual Time 7:51 AM MDT 6:21 PM MDT
Civil Twilight 7:22 AM MDT 6:50 PM MDT
Nautical Twilight 6:48 AM MDT 7:24 PM MDT
Astronomical Twilight 6:15 AM MDT 7:57 PM MDT
Moon 9:03 AM MDT (10/27) 6:48 PM MDT (10/27)
Length of Visible Light 11h 28m
Length of Day
10h 29m
New Moon, 1% of the Moon is Illuminated
Oct 27
New Moon
Nov 2
First Quarter
Nov 10
Full
Nov 18
Last Quarter
Nov 24
New

Hourly Weather History & Observations

Time (MDT) Temp. Windchill Dew Point Humidity Pressure Visibility Wind Dir Wind Speed Gust Speed Precip Events Conditions
12:15 AM 17.6 °F 12.3 °F 6.8 °F 63% 30.19 in 10.0 mi NNE 3.5 mph - N/A   Clear
12:35 AM 19.4 °F 12.8 °F 8.6 °F 63% 30.18 in 10.0 mi NNE 4.6 mph - N/A   Clear
12:55 AM 17.6 °F - 8.6 °F 68% 30.18 in 10.0 mi Calm Calm - N/A   Clear
1:15 AM 19.4 °F 14.3 °F 8.6 °F 63% 30.18 in 10.0 mi NNE 3.5 mph - N/A   Clear
1:35 AM 19.4 °F 12.8 °F 10.4 °F 68% 30.18 in 10.0 mi NNE 4.6 mph - N/A   Clear
2:15 AM 21.2 °F 14.9 °F 10.4 °F 63% 30.18 in 10.0 mi ENE 4.6 mph - N/A   Overcast
2:55 AM 21.2 °F - 10.4 °F 63% 30.19 in 10.0 mi Calm Calm - N/A   Scattered Clouds
3:35 AM 21.2 °F 14.9 °F 10.4 °F 63% 30.18 in 10.0 mi NNE 4.6 mph - N/A   Overcast
3:55 AM 23.0 °F 18.4 °F 12.2 °F 63% 30.17 in 10.0 mi North 3.5 mph - N/A   Overcast
4:15 AM 23.0 °F 18.4 °F 12.2 °F 63% 30.15 in 10.0 mi NNE 3.5 mph - N/A   Overcast
4:35 AM 21.2 °F 14.9 °F 12.2 °F 68% 30.15 in 10.0 mi North 4.6 mph - N/A   Overcast
4:55 AM 21.2 °F 12.6 °F 12.2 °F 68% 30.15 in 10.0 mi North 6.9 mph - N/A   Mostly Cloudy
5:15 AM 21.2 °F 13.6 °F 12.2 °F 68% 30.16 in 10.0 mi North 5.8 mph - N/A   Partly Cloudy
5:35 AM 21.2 °F 16.4 °F 10.4 °F 63% 30.16 in 10.0 mi North 3.5 mph - N/A   Clear
5:55 AM 19.4 °F - 10.4 °F 68% 30.17 in 10.0 mi Calm Calm - N/A   Clear
6:15 AM 19.4 °F 14.3 °F 10.4 °F 68% 30.17 in 10.0 mi NNE 3.5 mph - N/A   Scattered Clouds
6:36 AM 17.6 °F 10.7 °F 10.4 °F 73% 30.18 in 10.0 mi NNE 4.6 mph - N/A   Scattered Clouds
6:51 AM 15.8 °F 8.6 °F 8.6 °F 73% 30.18 in 10.0 mi NNE 4.6 mph - N/A   Clear
6:55 AM 15.8 °F 8.6 °F 6.8 °F 68% 30.17 in 10.0 mi NE 4.6 mph - N/A   Clear
7:54 AM 15.8 °F - 6.8 °F 68% 30.17 in 10.0 mi Calm Calm - N/A   Clear
8:51 AM 19.4 °F 12.8 °F 10.4 °F 68% 30.19 in 10.0 mi North 4.6 mph - N/A   Partly Cloudy
9:54 AM 26.6 °F - 10.4 °F 51% 30.18 in 10.0 mi Calm Calm - N/A   Clear
10:58 AM 30.2 °F - 10.4 °F 44% 30.19 in 10.0 mi Calm Calm - N/A   Clear
12:59 PM 39.2 °F 33.6 °F 12.2 °F 33% 30.15 in 10.0 mi SSW 8.1 mph - N/A   Clear
1:54 PM 42.8 °F 38.0 °F 10.4 °F 27% 30.12 in 10.0 mi South 8.1 mph - N/A   Clear
2:56 PM 44.6 °F 41.4 °F 10.4 °F 25% 30.11 in 10.0 mi West 5.8 mph - N/A   Clear
3:52 PM 44.6 °F 40.2 °F 10.4 °F 25% 30.11 in 10.0 mi SSW 8.1 mph 16.1 mph N/A   Clear
4:51 PM 42.8 °F 40.1 °F 10.4 °F 27% 30.13 in 10.0 mi West 4.6 mph - N/A   Clear
5:51 PM 39.2 °F 35.9 °F 10.4 °F 31% 30.14 in 10.0 mi WSW 4.6 mph - N/A   Clear
6:58 PM 35.6 °F 29.2 °F 10.4 °F 35% 30.15 in 10.0 mi West 8.1 mph - N/A   Clear
7:52 PM 32.0 °F 22.5 °F 8.6 °F 38% 30.18 in 10.0 mi WSW 12.7 mph - N/A   Clear
8:54 PM 30.2 °F 22.6 °F 10.4 °F 44% 30.19 in 10.0 mi WSW 8.1 mph - N/A   Clear
8:55 PM 30.2 °F 22.6 °F 10.4 °F 44% 30.19 in 10.0 mi WSW 8.1 mph - N/A   Clear
9:15 PM 30.2 °F 21.3 °F 12.2 °F 47% 30.19 in 10.0 mi WSW 10.4 mph - N/A   Clear
9:35 PM 30.2 °F 21.9 °F 12.2 °F 47% 30.20 in 10.0 mi WSW 9.2 mph - N/A   Clear
10:15 PM 30.2 °F 22.6 °F 14.0 °F 51% 30.21 in 10.0 mi ESE 8.1 mph - N/A   Clear
10:35 PM 32.0 °F 28.7 °F 12.2 °F 44% 30.22 in 10.0 mi SE 3.5 mph - N/A   Clear
10:55 PM 30.2 °F 21.9 °F 12.2 °F 47% 30.22 in 10.0 mi South 9.2 mph - N/A   Clear
11:15 PM 28.4 °F - 14.0 °F 55% 30.23 in 10.0 mi Calm Calm - N/A   Clear
11:35 PM 28.4 °F 24.6 °F 14.0 °F 55% 30.23 in 10.0 mi SSE 3.5 mph - N/A   Clear
11:55 PM 28.4 °F - 14.0 °F 55% 30.23 in 10.0 mi Calm Calm - N/A   Clear